Погода в Поццалло

Италия     36°43′49″N   14°50′39″E
темп.,
°C
ветер,
м/с
пор.,
м/с
влажн.,
%
обл.,
%
осадки,
мм/ч
давл.,
гПа
погр.,
м
6 марта, сб
сб601:00+11св348820 0.0 101974
04:00+11св34880 0.0 101980
07:00+11св34870 0.0 102089
10:00+16в34630 0.0 1022643
13:00+17вюв55650 0.0 1022736
16:00+15вюв567639 0.1 1022530
19:00+12всв469047 0.1 1023166
22:00+11св58910 0.0 1024221
7 марта, вс
вс701:00+10св58890 0.0 1024219
04:00+10св598331 0.0 1023242
07:00+11св6107960 0.0 1024396
10:00+14всв78722 0.0 1024764
13:00+15в676811 0.0 1023801
16:00+14в677214 0.0 1021674
19:00+10всв57897 0.0 1021289
22:00+10всв588762 0.0 1021321
8 марта, пн
пн801:00+10всв588980 0.0 1019286
04:00+9всв598936 0.0 1017306
07:00+9всв698822 0.0 1017386
10:00+14всв911691 0.0 1016679
13:00+15в810620 0.0 1014778
16:00+14в897567 0.0 1013712
19:00+12всв7118783 0.0 1013480
22:00+12всв71287100 0.0 1014527
9 марта, вт
вт901:00+12всв7118699 0.0 1013550
04:00+11всв71189100 0.0 1012453
07:00+11св7118689 0.0 1012432
10:00+16всв68670 0.0 1014608
13:00+17в55640 0.0 1014862
16:00+15юв347366 0.1 1013522
19:00+12в119075 0.1 101550
22:00+11сз229111 0.0 101649
10 марта, ср
ср1001:00+10ссз22875 0.0 101641
04:00+11сз2382100 0.0 101591
07:00+11зсз3485100 0.0 1015183
10:00+13з578698 0.3 1017639
13:00+16з666880 0.8 1016868
16:00+15з797020 0.1 1016749
19:00+11ссв488915 1.4 1018295
22:00+10ссз22883 0.1 102173